Temperature
18 17 17 17 17 17 16 16 16 16 16 15 15 15 15 15 14 14 14 14 14 14 14 14 14 14 14 14 14 14 14 14 14 14 13 13 13 13 13 13 13 13 13
17 17 17 17 17 17 16 16 16 16 15 15 15 15 15 14 14 14 14 14 14 14 14 14 14 14 13 13 13 13 13 13 13 13 13 12 12 12 12 12 13 12 13
17 17 17 17 17 16 16 16 16 15 15 15 15 15 14 14 14 14 14 14 14 14 13 13 13 13 13 13 13 13 13 13 12 12 12 12 12 12 12 12 12 12 12
17 17 17 17 17 16 16 16 16 15 15 15 15 14 14 14 14 14 14 13 13 13 13 13 13 13 13 13 13 12 12 12 12 12 12 12 12 11 11 11 12 12 12
17 17 17 17 17 16 16 16 15 15 15 15 14 14 14 14 14 13 13 13 13 13 13 13 13 13 12 12 12 12 12 12 12 12 12 12 12 11 11 11 11 11 11
17 17 17 17 16 16 16 15 15 15 15 14 14 14 14 14 14 13 13 13 13 13 12 12 12 12 12 12 12 12 12 12 12 12 12 11 11 11 11 11 11 11 11
16 16 16 16 16 16 15 15 15 15 15 14 14 14 14 14 13 13 13 13 13 12 12 12 12 12 12 12 12 12 11 11 11 11 11 11 11 11 11 11 11 10 10
16 16 16 16 16 15 15 15 15 15 14 14 14 14 14 13 13 13 13 13 12 12 12 12 12 12 12 11 11 11 11 11 11 11 11 11 11 11 11 10 10 10 10
15 16 16 16 15 15 15 15 15 15 14 14 14 14 13 13 13 13 12 12 12 12 12 12 12 11 11 11 11 11 11 11 11 11 11 10 10 10 10 10 10 10 9
15 15 15 15 15 15 15 15 15 14 14 14 14 13 13 13 13 12 12 12 12 12 12 11 11 11 11 11 11 11 11 11 11 10 10 10 10 10 10 10 10 10 10
15 15 15 15 15 15 15 15 14 14 14 13 13 13 13 13 12 12 12 12 12 11 11 11 11 11 11 11 10 10 10 10 10 10 10 10 10 10 10 10 10 10 10
15 15 14 14 15 14 14 14 14 14 14 13 13 13 13 12 12 12 12 12 11 11 11 11 11 10 10 10 10 10 10 10 10 10 10 10 10 10 10 10 10 9 9
14 14 14 14 14 14 14 14 14 13 13 13 13 13 12 12 12 12 12 11 11 11 11 10 10 10 10 10 10 10 10 9 9 9 9 9 9 9 9 9 9 9 9
14 14 14 14 14 13 13 13 13 13 13 13 12 12 12 12 12 11 11 11 11 11 10 10 10 10 10 10 10 9 9 9 9 9 9 9 9 9 9 9 9 9 9
13 13 13 13 13 13 13 13 13 12 12 12 12 12 12 12 11 11 11 11 10 10 10 10 10 10 9 9 9 9 9 9 9 9 9 9 9 9 9 9 9 9 9
13 13 13 13 13 13 13 13 12 12 12 12 12 12 11 11 11 11 10 10 10 10 10 9 9 9 9 9 9 9 9 9 8 8 8 8 8 8 9 8 8 8 8
13 13 13 13 13 12 12 12 12 12 12 11 11 11 11 11 11 10 10 10 10 9 9 9 9 9 9 8 8 8 8 8 8 8 8 8 8 8 8 8 8 8 8
13 13 12 12 12 12 12 12 12 11 11 11 11 11 10 10 10 10 10 10 9 9 9 8 8 8 8 8 8 8 8 8 8 8 8 8 8 8 8 8 8 8 8
13 13 12 12 12 11 11 11 11 11 11 11 10 10 10 10 10 9 9 9 9 8 8 8 8 8 8 8 8 8 8 8 7 7 7 7 7 8 8 8 8 8 8
13 12 12 12 11 11 11 11 11 10 10 10 10 10 10 9 9 9 9 9 8 8 8 8 7 7 7 7 7 7 7 7 7 7 7 7 7 7 7 7 7 7 7
12 12 11 11 11 10 10 10 10 10 10 10 9 9 9 9 9 9 8 8 8 8 8 8 7 7 7 7 7 7 7 7 7 7 7 7 7 7 7 7 7 7 7
11 11 11 11 10 10 10 10 9 9 9 9 9 9 9 9 8 8 8 8 7 7 7 7 7 7 7 6 6 6 6 6 6 6 6 6 6 6 7 7 7 7 7
11 10 10 10 10 9 9 9 9 9 9 9 9 9 8 8 8 8 7 7 7 7 7 6 6 6 6 6 6 6 6 6 6 6 6 6 6 6 6 6 6 6 6
10 10 10 9 9 9 9 9 9 8 8 8 8 8 8 8 8 7 7 7 7 6 6 6 6 6 6 6 6 6 6 6 6 5 5 5 5 6 6 6 6 6 6
9 9 9 9 9 8 8 8 8 8 8 8 8 8 8 7 7 7 7 7 6 6 6 6 6 6 6 6 5 5 5 5 5 5 5 5 5 5 5 5 5 5 5
9 9 9 8 8 8 8 8 8 8 8 8 8 7 7 7 7 7 6 6 6 6 6 6 6 5 5 5 5 5 5 5 5 5 5 5 5 5 5 5 5 5 5
Wind_Speed
6 6 7 7 7 6 6 6 6 5 5 3 3 3 2 2 2 3 5 5 6 6 5 4 3 4 3 3 3 3 3 3 3 3 4 4 4 3 3 2 3 3 4
6 6 6 7 7 7 6 6 6 5 5 3 3 2 2 1 1 2 4 5 5 5 5 4 3 3 3 4 4 3 3 2 3 2 2 3 4 4 4 3 3 3 3
10 9 8 7 7 7 7 7 6 5 4 4 4 3 3 2 2 2 2 3 3 4 4 4 3 3 3 2 2 3 3 2 2 2 2 2 1 3 3 4 4 3 3
8 8 8 8 8 7 6 6 6 6 5 5 5 5 4 2 1 1 0 2 3 3 3 3 3 2 2 2 1 2 2 2 1 2 1 1 2 1 2 3 3 3 3
8 9 10 9 8 6 6 6 6 5 5 5 6 6 3 2 1 1 1 2 2 3 2 3 2 2 1 1 2 2 2 1 1 1 1 1 2 1 1 2 3 3 3
6 7 7 7 6 5 5 6 7 5 5 5 5 6 5 4 3 1 1 1 1 2 2 2 2 1 1 1 1 1 1 1 1 1 1 1 1 0 1 1 1 2 3
6 6 7 6 7 7 6 6 7 5 5 5 5 5 5 4 4 3 2 1 0 1 1 1 1 1 0 0 1 1 1 1 1 1 0 0 0 1 1 2 0 1 2
5 6 7 7 7 8 7 7 7 5 5 5 4 4 4 3 3 3 2 2 1 1 1 0 0 0 0 1 1 1 0 1 1 1 0 0 0 1 1 2 2 1 1
4 5 6 7 7 7 7 7 7 6 5 5 5 4 4 4 3 3 2 1 1 1 0 1 1 1 1 1 2 1 1 1 1 0 1 1 1 0 1 1 2 3 1
4 4 5 6 6 7 6 6 6 6 4 4 4 4 3 3 3 3 2 2 1 0 1 1 1 1 2 2 2 1 1 2 1 0 1 1 1 1 0 1 1 2 3
4 4 4 5 5 5 6 6 5 5 4 4 3 3 3 2 3 2 2 2 2 1 1 1 1 1 1 1 2 1 1 1 1 1 1 1 1 1 1 0 1 1 2
4 4 4 4 5 5 5 5 5 5 4 4 4 3 3 3 2 2 1 1 1 1 1 1 1 1 1 1 1 1 0 1 0 1 1 1 1 1 1 0 0 0 1
3 3 3 4 4 4 4 5 5 5 4 4 4 3 3 3 2 2 2 2 1 1 1 1 1 1 1 1 2 2 1 0 1 1 1 2 0 1 1 0 0 0 0
3 3 3 3 4 4 4 4 4 4 4 4 4 4 3 3 3 3 2 2 2 2 2 1 1 1 1 1 1 1 0 0 1 1 1 2 2 2 1 1 1 1 0
3 3 3 3 3 3 3 4 3 3 4 4 4 3 3 3 3 2 2 2 2 2 2 2 2 1 1 1 2 1 1 1 1 2 2 2 2 2 2 1 1 1 0
4 4 3 3 3 4 3 3 3 3 4 4 4 3 3 3 3 2 2 3 2 2 2 2 2 2 1 2 3 3 2 1 1 2 2 2 1 2 3 3 2 1 2
5 4 4 4 3 4 4 4 4 4 4 4 4 3 3 3 2 2 2 2 2 2 2 2 2 1 1 2 3 4 2 1 1 1 2 2 3 3 2 3 3 3 3
5 4 3 3 2 2 3 3 3 4 5 4 4 4 4 3 2 2 2 1 2 2 1 1 1 1 2 4 3 3 2 1 1 1 1 2 3 3 3 2 2 3 3
4 4 4 3 3 3 3 4 4 3 4 4 4 4 4 4 3 2 2 1 1 1 1 1 1 1 2 3 4 3 2 2 2 2 2 3 3 5 4 2 2 3 4
3 3 3 3 3 3 4 5 4 4 4 4 4 4 4 4 4 3 2 1 1 1 2 2 1 1 1 3 3 3 1 1 2 3 3 4 5 6 4 2 1 3 4
3 4 4 3 3 3 4 5 4 3 4 3 3 3 4 4 4 3 2 2 2 2 2 2 1 0 1 2 3 3 1 0 1 2 3 4 6 6 6 4 2 4 4
3 4 4 2 2 4 5 4 3 2 2 2 3 3 3 3 3 3 2 2 2 2 1 1 0 1 2 3 3 3 2 2 0 1 2 3 6 6 6 5 5 5 3
3 3 4 3 2 3 4 4 2 2 2 2 3 3 3 3 3 4 3 2 2 2 2 2 1 1 2 3 4 3 3 3 1 2 4 4 5 5 4 6 6 4 2
3 3 4 3 2 1 2 3 2 2 3 3 2 3 3 3 3 3 3 3 3 3 2 2 2 2 2 2 2 2 2 3 2 2 3 4 4 3 4 5 4 3 2
2 2 3 3 2 1 1 1 2 3 3 2 2 2 2 3 3 2 3 4 4 4 4 4 3 3 3 4 4 2 1 1 1 1 2 2 3 3 3 3 3 3 3
2 2 2 2 1 1 1 1 2 3 3 2 2 2 2 2 3 2 1 1 1 1 2 3 2 3 4 4 3 4 3 3 1 2 1 1 2 2 3 3 3 3 3
Wind_Direction
186 160 151 143 136 133 129 127 124 121 118 113 113 104 91 69 52 53 62 67 66 69 72 68 61 63 71 73 78 70 61 45 47 57 27 11 14 27 34 40 48 47 47
169 157 149 144 147 148 146 139 139 139 133 137 141 136 134 120 88 49 52 62 67 67 76 74 73 71 74 68 69 75 71 48 44 71 62 14 358 0 11 20 31 34 44
180 171 160 155 151 152 159 157 154 147 136 125 109 91 73 52 43 36 26 32 62 70 74 83 82 77 83 90 82 89 92 73 9 47 100 108 271 319 340 8 22 26 29
175 168 164 162 164 165 160 156 153 147 140 133 129 129 128 132 182 179 44 28 50 64 75 87 87 85 83 93 82 82 92 110 64 356 29 124 153 170 316 339 3 9 19
175 169 167 167 165 160 156 158 147 141 143 140 141 137 131 143 141 97 64 30 25 38 58 91 94 88 82 76 68 67 76 98 116 94 33 47 50 76 168 292 329 350 357
161 159 161 154 148 145 142 150 150 150 153 146 145 146 148 147 135 120 91 25 360 5 22 60 85 93 90 75 84 81 90 78 84 87 91 109 113 226 155 207 300 320 326
151 147 150 154 154 151 150 148 150 156 158 151 154 162 161 161 166 173 172 158 283 330 327 23 54 56 10 69 87 92 73 83 94 91 83 121 166 188 170 145 168 309 316
149 156 161 158 161 161 159 152 153 157 155 157 165 168 161 162 173 180 174 185 202 232 275 38 350 342 43 59 80 93 51 65 77 42 39 53 295 182 167 168 151 64 342
151 158 160 156 158 161 163 159 159 161 163 159 153 157 159 164 173 180 175 185 222 225 76 73 58 32 58 80 94 104 88 82 78 50 34 13 322 316 191 164 163 148 179
153 157 156 162 162 164 163 156 157 161 161 153 154 154 156 160 171 165 174 188 208 153 115 89 87 75 62 68 89 94 82 90 53 60 46 359 335 344 32 155 167 163 166
162 159 158 156 154 153 152 156 156 148 149 151 147 139 148 153 150 155 180 191 187 168 150 163 147 131 112 98 101 101 87 87 17 9 28 328 327 13 349 58 138 159 153
161 153 151 143 140 151 156 157 157 156 160 158 146 149 149 140 131 143 160 144 137 159 155 147 138 146 140 144 140 150 92 108 328 315 345 313 337 352 344 50 128 184 178
143 138 137 149 159 158 156 157 161 168 161 151 149 149 144 142 150 153 132 111 121 111 95 120 172 179 187 194 188 178 201 217 258 264 252 273 283 308 310 317 230 236 296
152 153 152 156 162 161 159 160 170 170 157 145 145 150 158 160 159 147 133 126 119 118 111 108 146 159 161 186 169 157 187 302 300 284 258 261 242 243 257 285 256 231 113
151 167 167 166 157 153 156 151 154 159 152 143 146 160 159 148 139 131 131 124 119 111 118 105 87 82 97 99 86 95 72 17 344 335 314 292 295 308 301 298 265 184 181
183 179 173 161 167 168 171 163 159 160 150 145 154 156 139 134 139 145 138 124 112 101 92 98 100 72 37 31 44 63 74 49 23 341 331 321 330 342 339 329 317 258 215
187 183 182 182 180 180 170 172 175 157 154 157 155 150 143 139 144 143 124 127 123 110 103 93 95 76 354 33 41 49 77 70 4 340 349 349 337 342 321 322 327 306 274
184 190 182 174 166 163 154 152 144 146 151 157 159 158 154 149 138 124 127 132 139 137 129 109 95 63 14 28 30 43 60 46 2 333 331 343 331 333 348 337 341 329 305
184 181 172 157 144 145 147 138 133 141 145 161 172 172 165 155 146 149 161 158 133 122 132 141 104 71 6 21 34 49 59 37 4 349 351 356 333 332 356 11 334 321 315
142 139 131 120 132 143 144 137 145 154 172 185 191 183 172 166 168 174 172 147 130 134 130 108 110 96 7 10 25 46 85 43 359 348 343 347 347 342 347 342 305 299 299
123 123 125 136 153 146 136 143 152 183 203 191 181 178 174 172 170 160 150 146 133 115 109 111 96 32 349 2 18 36 72 122 336 338 333 327 337 341 342 337 300 289 297
108 121 121 125 136 139 136 144 174 202 179 160 161 167 172 172 158 145 150 153 148 139 144 133 63 325 322 340 352 360 354 352 244 299 309 319 337 341 344 343 336 324 322
121 130 128 124 124 141 145 159 192 165 147 150 167 178 173 172 161 163 165 161 165 169 185 184 215 277 296 313 334 340 339 336 327 303 324 339 347 347 347 349 350 353 4
122 119 128 130 133 153 154 170 174 152 144 162 183 181 174 175 170 171 171 172 184 186 193 202 219 252 276 285 295 301 317 330 332 329 329 338 346 349 345 348 350 355 351
128 135 147 159 169 154 149 170 164 150 149 161 180 178 183 185 186 191 199 196 204 201 199 208 209 215 244 267 286 295 284 286 286 346 0 360 357 355 350 347 345 347 352
146 145 146 152 165 145 139 178 170 158 162 171 191 196 191 191 189 193 235 283 242 240 230 225 222 242 263 279 284 293 304 323 7 57 2 321 315 310 313 318 326 327 321
Height
1529 1531 1532 1533 1533 1534 1535 1536 1537 1537 1538 1538 1538 1538 1539 1539 1538 1538 1538 1537 1537 1536 1535 1535 1534 1533 1533 1532 1531 1531 1530 1529 1528 1528 1527 1527 1527 1526 1526 1525 1524 1523 1522
1528 1529 1530 1531 1532 1533 1534 1535 1536 1536 1537 1537 1538 1538 1539 1539 1539 1538 1538 1537 1537 1536 1535 1535 1534 1533 1533 1532 1531 1531 1530 1529 1528 1527 1527 1527 1528 1526 1526 1525 1524 1523 1522
1525 1526 1528 1530 1531 1532 1533 1534 1535 1536 1536 1537 1538 1538 1539 1539 1538 1538 1537 1537 1537 1536 1535 1535 1534 1533 1533 1532 1531 1531 1530 1529 1529 1528 1528 1527 1526 1526 1526 1525 1524 1523 1522
1522 1524 1526 1528 1529 1530 1532 1533 1534 1535 1536 1536 1537 1537 1537 1537 1537 1537 1537 1537 1536 1536 1535 1534 1534 1533 1532 1532 1531 1531 1530 1529 1528 1528 1528 1528 1527 1526 1525 1524 1523 1523 1522
1519 1521 1523 1525 1527 1529 1531 1532 1533 1534 1535 1536 1536 1536 1537 1537 1537 1537 1537 1536 1536 1535 1534 1534 1533 1533 1532 1532 1531 1530 1530 1529 1529 1528 1527 1526 1526 1526 1525 1523 1522 1522 1521
1517 1520 1522 1524 1526 1528 1529 1531 1532 1533 1534 1535 1535 1535 1536 1536 1536 1536 1536 1535 1535 1534 1534 1533 1533 1532 1532 1531 1531 1530 1529 1529 1528 1527 1526 1526 1525 1525 1524 1523 1521 1520 1520
1516 1518 1520 1522 1524 1526 1528 1529 1530 1531 1532 1533 1534 1535 1535 1535 1535 1535 1535 1534 1534 1533 1533 1532 1532 1531 1531 1530 1530 1529 1529 1528 1528 1527 1526 1525 1525 1524 1523 1522 1520 1519 1519
1514 1516 1518 1520 1522 1524 1526 1527 1528 1530 1531 1532 1533 1533 1534 1534 1534 1534 1533 1533 1533 1532 1532 1531 1531 1530 1529 1529 1528 1528 1527 1527 1526 1526 1525 1524 1524 1523 1522 1521 1519 1518 1517
1512 1514 1516 1518 1520 1522 1524 1525 1527 1528 1529 1530 1531 1532 1532 1533 1532 1532 1532 1532 1532 1531 1531 1530 1529 1529 1528 1527 1527 1526 1526 1525 1525 1524 1524 1523 1522 1522 1521 1520 1519 1518 1516
1511 1512 1514 1516 1518 1520 1522 1524 1525 1527 1528 1529 1530 1530 1531 1531 1531 1531 1531 1530 1530 1530 1529 1529 1528 1527 1527 1526 1525 1525 1524 1524 1523 1523 1522 1521 1521 1520 1519 1518 1517 1517 1516
1510 1511 1512 1514 1516 1518 1520 1522 1523 1525 1526 1527 1528 1528 1529 1529 1530 1529 1529 1529 1529 1528 1528 1527 1527 1526 1525 1525 1524 1523 1523 1522 1521 1521 1520 1519 1519 1518 1518 1517 1516 1515 1515
1509 1510 1511 1513 1514 1516 1518 1519 1521 1522 1523 1525 1526 1526 1527 1527 1528 1528 1527 1527 1527 1526 1526 1525 1525 1524 1524 1523 1522 1522 1521 1520 1519 1519 1518 1518 1517 1517 1516 1515 1514 1514 1513
1509 1509 1510 1512 1513 1514 1516 1518 1519 1520 1521 1522 1523 1524 1525 1525 1526 1526 1526 1525 1525 1524 1524 1523 1523 1522 1522 1521 1521 1520 1519 1519 1518 1517 1517 1516 1516 1515 1514 1513 1513 1512 1511
1508 1508 1509 1510 1511 1513 1514 1515 1517 1518 1519 1520 1521 1522 1523 1523 1523 1524 1524 1523 1523 1522 1521 1521 1521 1520 1520 1519 1519 1518 1518 1517 1516 1516 1515 1515 1514 1513 1513 1512 1511 1510 1509
1507 1507 1507 1508 1510 1511 1512 1513 1515 1516 1518 1518 1519 1520 1521 1521 1521 1522 1521 1521 1521 1520 1519 1519 1519 1518 1518 1517 1517 1516 1516 1515 1514 1514 1513 1513 1512 1512 1511 1510 1510 1509 1508
1506 1506 1507 1507 1508 1509 1510 1511 1512 1514 1515 1516 1517 1517 1518 1519 1519 1519 1519 1519 1519 1518 1518 1517 1517 1516 1516 1516 1515 1515 1514 1513 1513 1512 1512 1511 1511 1510 1509 1509 1508 1508 1507
1504 1504 1504 1505 1506 1507 1508 1509 1510 1511 1513 1514 1514 1515 1516 1516 1517 1517 1517 1516 1516 1516 1516 1516 1515 1514 1514 1514 1514 1513 1512 1512 1511 1510 1510 1509 1509 1508 1507 1506 1506 1505 1505
1502 1502 1503 1503 1504 1505 1506 1507 1508 1509 1510 1511 1512 1513 1513 1514 1514 1514 1514 1514 1514 1514 1514 1514 1513 1513 1512 1512 1512 1511 1510 1509 1509 1508 1508 1507 1507 1506 1505 1504 1503 1502 1502
1500 1500 1501 1502 1502 1503 1504 1505 1506 1507 1507 1508 1509 1510 1510 1511 1511 1512 1512 1512 1512 1512 1512 1512 1511 1511 1510 1510 1510 1509 1508 1507 1507 1506 1506 1505 1505 1504 1503 1502 1501 1500 1499
1498 1499 1499 1500 1500 1501 1502 1502 1503 1504 1504 1505 1506 1507 1508 1509 1509 1509 1510 1510 1510 1510 1510 1509 1509 1509 1508 1508 1508 1507 1506 1505 1504 1504 1503 1503 1502 1501 1500 1499 1498 1497 1496
1496 1497 1497 1498 1498 1499 1500 1500 1501 1502 1502 1503 1504 1505 1506 1506 1507 1507 1508 1508 1508 1508 1507 1507 1507 1507 1506 1506 1505 1505 1504 1503 1502 1502 1501 1500 1499 1498 1497 1497 1495 1495 1494
1494 1495 1495 1496 1497 1497 1498 1498 1499 1500 1500 1501 1502 1502 1503 1504 1504 1505 1505 1505 1505 1505 1505 1505 1504 1504 1504 1503 1503 1503 1502 1502 1501 1499 1498 1498 1497 1496 1495 1494 1492 1492 1491
1493 1493 1494 1495 1495 1496 1496 1497 1497 1498 1498 1499 1500 1500 1501 1501 1502 1502 1502 1502 1502 1502 1502 1502 1502 1501 1501 1501 1500 1500 1499 1499 1498 1497 1496 1495 1494 1493 1492 1490 1489 1489 1488
1491 1492 1492 1493 1493 1494 1495 1495 1496 1497 1497 1497 1497 1497 1498 1498 1499 1499 1499 1499 1499 1499 1499 1499 1499 1499 1498 1498 1497 1497 1496 1495 1495 1494 1493 1492 1491 1490 1489 1487 1486 1486 1485
1490 1491 1491 1491 1492 1492 1493 1494 1494 1495 1495 1495 1495 1495 1495 1496 1496 1496 1496 1497 1497 1497 1497 1497 1497 1496 1495 1495 1495 1494 1493 1493 1492 1491 1490 1489 1487 1486 1485 1484 1483 1483 1482
1489 1489 1490 1490 1490 1491 1491 1492 1492 1493 1493 1493 1493 1493 1493 1493 1493 1493 1494 1494 1494 1495 1495 1495 1494 1493 1493 1493 1492 1491 1490 1490 1489 1488 1486 1485 1484 1483 1482 1481 1480 1479 1479